Time,TemperatureF,DewpointF,PressureIn,WindDirection,WindDirectionDegrees,WindSpeedMPH,WindSpeedGustMPH,Humidity,HourlyPrecipIn,Conditions,Clouds,dailyrainin,SoftwareType,DateUTC
2013-05-01 00:02:00,59.7,48.7,29.81,NNE,17,0.0,0.0,67,0.00,,,0.00,Wunderground v.1.15,2013-05-01 05:02:00,
2013-05-01 00:08:00,59.5,48.9,29.81,NNE,17,0.0,0.0,68,0.00,,,0.00,Wunderground v.1.15,2013-05-01 05:08:00,
2013-05-01 00:13:00,59.3,49.1,29.81,NNE,17,0.0,0.0,69,0.00,,,0.00,Wunderground v.1.15,2013-05-01 05:13:00,
2013-05-01 00:18:00,59.0,49.2,29.81,NNE,28,0.0,0.0,70,0.00,,,0.00,Wunderground v.1.15,2013-05-01 05:18:00,
2013-05-01 00:24:00,58.7,48.9,29.81,NNE,24,0.0,0.0,70,0.00,,,0.00,Wunderground v.1.15,2013-05-01 05:24:00,
2013-05-01 00:29:00,58.5,49.1,29.81,North,9,0.0,0.0,71,0.00,,,0.00,Wunderground v.1.15,2013-05-01 05:29:00,
2013-05-01 00:34:00,58.4,49.4,29.81,North,5,0.0,0.0,72,0.00,,,0.00,Wunderground v.1.15,2013-05-01 05:34:00,
2013-05-01 00:40:00,58.1,49.1,29.81,NNE,13,0.0,0.0,72,0.00,,,0.00,Wunderground v.1.15,2013-05-01 05:40:00,
2013-05-01 00:46:00,57.9,49.3,29.81,NNE,24,0.0,0.0,73,0.00,,,0.00,Wunderground v.1.15,2013-05-01 05:46:00,
2013-05-01 00:52:00,57.8,49.2,29.81,North,355,0.0,0.0,73,0.00,,,0.00,Wunderground v.1.15,2013-05-01 05:52:00,
2013-05-01 00:58:00,57.5,48.9,29.81,North,360,0.0,0.0,73,0.00,,,0.00,Wunderground v.1.15,2013-05-01 05:58:00,
2013-05-01 01:04:00,57.1,48.9,29.81,North,360,0.0,0.0,74,0.00,,,0.00,Wunderground v.1.15,2013-05-01 06:04:00,
2013-05-01 01:09:00,56.9,48.7,29.82,North,360,0.0,0.0,74,0.00,,,0.00,Wunderground v.1.15,2013-05-01 06:09:00,
2013-05-01 01:14:00,56.7,48.9,29.82,North,5,0.0,0.0,75,0.00,,,0.00,Wunderground v.1.15,2013-05-01 06:14:00,
2013-05-01 01:20:00,56.4,48.2,29.82,North,5,0.0,0.0,74,0.00,,,0.00,Wunderground v.1.15,2013-05-01 06:20:00,
2013-05-01 01:25:00,56.1,47.9,29.82,North,5,0.0,0.0,74,0.00,,,0.00,Wunderground v.1.15,2013-05-01 06:25:00,
2013-05-01 01:30:00,55.8,47.6,29.82,North,9,0.0,0.0,74,0.00,,,0.00,Wunderground v.1.15,2013-05-01 06:30:00,
2013-05-01 01:36:00,55.5,47.3,29.83,North,9,0.0,0.0,74,0.00,,,0.00,Wunderground v.1.15,2013-05-01 06:36:00,
2013-05-01 01:42:00,55.3,47.2,29.83,North,11,0.0,0.0,74,0.00,,,0.00,Wunderground v.1.15,2013-05-01 06:42:00,
2013-05-01 01:48:00,55.4,47.2,29.83,North,5,0.0,0.0,74,0.00,,,0.00,Wunderground v.1.15,2013-05-01 06:48:00,
2013-05-01 01:53:00,55.3,47.2,29.83,North,5,0.0,0.0,74,0.00,,,0.00,Wunderground v.1.15,2013-05-01 06:53:00,
2013-05-01 01:59:00,55.2,47.4,29.84,North,10,0.0,0.0,75,0.00,,,0.00,Wunderground v.1.15,2013-05-01 06:59:00,
2013-05-01 02:04:00,55.2,47.4,29.84,North,9,0.0,0.0,75,0.00,,,0.00,Wunderground v.1.15,2013-05-01 07:04:00,
2013-05-01 02:09:00,55.3,47.5,29.84,North,9,0.0,0.0,75,0.00,,,0.00,Wunderground v.1.15,2013-05-01 07:09:00,
2013-05-01 02:14:00,55.3,47.5,29.85,North,355,0.0,0.0,75,0.00,,,0.00,Wunderground v.1.15,2013-05-01 07:14:00,
2013-05-01 02:19:00,55.3,47.5,29.85,North,5,0.0,0.0,75,0.00,,,0.00,Wunderground v.1.15,2013-05-01 07:19:00,
2013-05-01 02:24:00,55.2,47.4,29.85,North,5,0.0,0.0,75,0.00,,,0.00,Wunderground v.1.15,2013-05-01 07:24:00,
2013-05-01 02:29:00,55.1,47.7,29.85,North,5,0.0,0.0,76,0.00,,,0.00,Wunderground v.1.15,2013-05-01 07:29:00,
2013-05-01 02:34:00,54.9,47.5,29.85,NNE,17,0.0,0.0,76,0.00,,,0.00,Wunderground v.1.15,2013-05-01 07:34:00,
2013-05-01 02:39:00,54.6,47.5,29.86,NNE,15,0.0,0.0,77,0.00,,,0.00,Wunderground v.1.15,2013-05-01 07:39:00,
2013-05-01 02:44:00,54.5,47.4,29.86,North,355,0.0,0.0,77,0.00,,,0.00,Wunderground v.1.15,2013-05-01 07:44:00,
2013-05-01 02:49:00,54.4,47.3,29.86,North,360,0.0,0.0,77,0.00,,,0.00,Wunderground v.1.15,2013-05-01 07:49:00,
2013-05-01 02:54:00,54.4,47.3,29.85,North,5,0.0,0.0,77,0.00,,,0.00,Wunderground v.1.15,2013-05-01 07:54:00,
2013-05-01 02:59:00,54.1,47.4,29.85,North,5,0.0,0.0,78,0.00,,,0.00,Wunderground v.1.15,2013-05-01 07:59:00,
2013-05-01 03:04:00,54.0,47.3,29.86,North,360,0.0,0.0,78,0.00,,,0.00,Wunderground v.1.15,2013-05-01 08:04:00,
2013-05-01 03:09:00,54.1,47.0,29.86,North,355,0.0,0.0,77,0.00,,,0.00,Wunderground v.1.15,2013-05-01 08:09:00,
2013-05-01 03:14:00,54.1,47.0,29.86,North,360,0.0,0.0,77,0.00,,,0.00,Wunderground v.1.15,2013-05-01 08:14:00,
2013-05-01 03:19:00,54.1,47.0,29.85,North,5,0.0,0.0,77,0.00,,,0.00,Wunderground v.1.15,2013-05-01 08:19:00,
2013-05-01 03:24:00,54.0,47.0,29.85,North,9,0.0,0.0,77,0.00,,,0.00,Wunderground v.1.15,2013-05-01 08:24:00,
2013-05-01 03:29:00,53.9,47.2,29.85,North,5,0.0,0.0,78,0.00,,,0.00,Wunderground v.1.15,2013-05-01 08:29:00,
2013-05-01 03:34:00,53.8,47.1,29.86,NNE,14,0.0,0.0,78,0.00,,,0.00,Wunderground v.1.15,2013-05-01 08:34:00,
2013-05-01 03:39:00,53.7,47.0,29.86,North,5,0.0,0.0,78,0.00,,,0.00,Wunderground v.1.15,2013-05-01 08:39:00,
2013-05-01 03:44:00,53.6,47.2,29.86,NNE,13,0.0,0.0,79,0.00,,,0.00,Wunderground v.1.15,2013-05-01 08:44:00,
2013-05-01 03:49:00,53.5,47.1,29.86,NNE,13,0.0,0.0,79,0.00,,,0.00,Wunderground v.1.15,2013-05-01 08:49:00,
2013-05-01 03:54:00,53.4,47.0,29.87,NNE,27,0.0,0.0,79,0.00,,,0.00,Wunderground v.1.15,2013-05-01 08:54:00,
2013-05-01 03:59:00,53.2,47.2,29.88,NNE,19,0.0,0.0,80,0.00,,,0.00,Wunderground v.1.15,2013-05-01 08:59:00,
2013-05-01 04:04:00,53.3,47.3,29.88,North,5,0.0,0.0,80,0.00,,,0.00,Wunderground v.1.15,2013-05-01 09:04:00,
2013-05-01 04:09:00,53.4,47.4,29.89,North,355,0.0,0.0,80,0.00,,,0.00,Wunderground v.1.15,2013-05-01 09:09:00,
2013-05-01 04:14:00,53.3,47.3,29.89,NNW,346,0.0,0.0,80,0.00,,,0.00,Wunderground v.1.15,2013-05-01 09:14:00,
2013-05-01 04:19:00,53.1,47.1,29.90,North,355,0.0,0.0,80,0.00,,,0.00,Wunderground v.1.15,2013-05-01 09:19:00,
2013-05-01 04:24:00,53.0,47.0,29.90,North,355,0.0,0.0,80,0.00,,,0.00,Wunderground v.1.15,2013-05-01 09:24:00,
2013-05-01 04:29:00,53.0,47.3,29.90,North,360,0.0,0.0,81,0.00,,,0.00,Wunderground v.1.15,2013-05-01 09:29:00,
2013-05-01 04:34:00,53.1,47.4,29.90,North,355,0.0,0.0,81,0.00,,,0.00,Wunderground v.1.15,2013-05-01 09:34:00,
2013-05-01 04:39:00,53.5,47.5,29.90,North,360,0.0,0.0,80,0.00,,,0.00,Wunderground v.1.15,2013-05-01 09:39:00,
2013-05-01 04:44:00,53.7,47.7,29.91,North,5,0.0,0.0,80,0.00,,,0.00,Wunderground v.1.15,2013-05-01 09:44:00,
2013-05-01 04:49:00,53.8,47.8,29.91,North,355,0.0,0.0,80,0.00,,,0.00,Wunderground v.1.15,2013-05-01 09:49:00,
2013-05-01 04:54:00,53.7,47.3,29.91,North,360,0.0,0.0,79,0.00,,,0.00,Wunderground v.1.15,2013-05-01 09:54:00,
2013-05-01 04:59:00,53.7,47.7,29.91,NNE,29,0.0,0.0,80,0.00,,,0.00,Wunderground v.1.15,2013-05-01 09:59:00,
2013-05-01 05:05:00,53.8,47.8,29.91,NNE,18,0.0,0.0,80,0.00,,,0.00,Wunderground v.1.15,2013-05-01 10:05:00,
2013-05-01 05:10:00,53.6,47.6,29.92,NNE,13,0.0,0.0,80,0.00,,,0.00,Wunderground v.1.15,2013-05-01 10:10:00,
2013-05-01 05:15:00,53.5,47.5,29.91,North,5,0.0,0.0,80,0.00,,,0.00,Wunderground v.1.15,2013-05-01 10:15:00,
2013-05-01 05:20:00,53.3,47.6,29.91,North,5,0.0,0.0,81,0.00,,,0.00,Wunderground v.1.15,2013-05-01 10:20:00,
2013-05-01 05:25:00,53.2,47.8,29.91,North,5,0.0,0.0,82,0.00,,,0.00,Wunderground v.1.15,2013-05-01 10:25:00,
2013-05-01 05:30:00,53.0,47.7,29.91,North,5,0.0,0.0,82,0.00,,,0.00,Wunderground v.1.15,2013-05-01 10:30:00,
2013-05-01 05:35:00,52.9,47.9,29.92,North,5,0.0,0.0,83,0.00,,,0.00,Wunderground v.1.15,2013-05-01 10:35:00,
2013-05-01 05:40:00,52.8,47.8,29.92,North,5,0.0,0.0,83,0.00,,,0.00,Wunderground v.1.15,2013-05-01 10:40:00,
2013-05-01 05:45:00,52.7,48.0,29.93,North,5,0.0,0.0,84,0.00,,,0.00,Wunderground v.1.15,2013-05-01 10:45:00,
2013-05-01 05:50:00,52.5,48.1,29.93,North,360,0.0,0.0,85,0.00,,,0.00,Wunderground v.1.15,2013-05-01 10:50:00,
2013-05-01 05:55:00,52.3,47.9,29.92,NNE,13,0.0,0.0,85,0.00,,,0.00,Wunderground v.1.15,2013-05-01 10:55:00,
2013-05-01 06:00:00,52.2,48.1,29.93,NNE,12,0.0,0.0,86,0.00,,,0.00,Wunderground v.1.15,2013-05-01 11:00:00,
2013-05-01 06:05:00,52.1,48.0,29.94,NNE,23,0.0,0.0,86,0.00,,,0.00,Wunderground v.1.15,2013-05-01 11:05:00,
2013-05-01 06:10:00,52.0,48.3,29.94,North,11,0.0,0.0,87,0.00,,,0.00,Wunderground v.1.15,2013-05-01 11:10:00,
2013-05-01 06:15:00,52.0,48.3,29.94,North,5,0.0,0.0,87,0.00,,,0.00,Wunderground v.1.15,2013-05-01 11:15:00,
2013-05-01 06:20:00,52.1,48.3,29.95,ENE,60,0.0,0.0,87,0.00,,,0.00,Wunderground v.1.15,2013-05-01 11:20:00,
2013-05-01 06:25:00,52.2,48.1,29.95,NNE,13,0.0,0.0,86,0.00,,,0.00,Wunderground v.1.15,2013-05-01 11:25:00,
2013-05-01 06:30:00,52.3,48.2,29.95,North,9,0.0,0.0,86,0.00,,,0.00,Wunderground v.1.15,2013-05-01 11:30:00,
2013-05-01 06:35:00,52.4,48.3,29.96,NE,40,0.0,0.0,86,0.00,,,0.00,Wunderground v.1.15,2013-05-01 11:35:00,
2013-05-01 06:40:00,52.6,48.5,29.96,NNE,17,0.0,0.0,86,0.00,,,0.00,Wunderground v.1.15,2013-05-01 11:40:00,
2013-05-01 06:45:00,52.7,48.6,29.96,NNE,18,0.0,0.0,86,0.00,,,0.00,Wunderground v.1.15,2013-05-01 11:45:00,
2013-05-01 06:50:00,52.7,48.6,29.97,NNE,14,0.0,0.0,86,0.00,,,0.00,Wunderground v.1.15,2013-05-01 11:50:00,
2013-05-01 06:55:00,52.9,48.8,29.97,North,355,0.0,0.0,86,0.00,,,0.00,Wunderground v.1.15,2013-05-01 11:55:00,
2013-05-01 07:00:00,53.0,48.9,29.96,North,10,0.0,0.0,86,0.00,,,0.00,Wunderground v.1.15,2013-05-01 12:00:00,
2013-05-01 07:05:00,53.3,48.9,29.98,NE,35,0.0,0.0,85,0.00,,,0.00,Wunderground v.1.15,2013-05-01 12:05:00,
2013-05-01 07:10:00,53.5,49.1,29.98,North,5,0.0,0.0,85,0.00,,,0.00,Wunderground v.1.15,2013-05-01 12:10:00,
2013-05-01 07:15:00,53.7,49.0,29.98,NNE,14,0.0,0.0,84,0.00,,,0.00,Wunderground v.1.15,2013-05-01 12:15:00,
2013-05-01 07:20:00,53.7,49.0,29.98,NNE,21,0.0,0.0,84,0.00,,,0.00,Wunderground v.1.15,2013-05-01 12:20:00,
2013-05-01 07:25:00,53.7,48.7,29.98,North,5,0.0,0.0,83,0.00,,,0.00,Wunderground v.1.15,2013-05-01 12:25:00,
2013-05-01 07:30:00,53.9,48.9,29.99,North,355,0.0,0.0,83,0.00,,,0.00,Wunderground v.1.15,2013-05-01 12:30:00,
2013-05-01 07:35:00,54.3,48.9,29.99,NNE,14,0.0,0.0,82,0.00,,,0.00,Wunderground v.1.15,2013-05-01 12:35:00,
2013-05-01 07:40:00,54.4,48.7,30.00,North,5,0.0,0.0,81,0.00,,,0.00,Wunderground v.1.15,2013-05-01 12:40:00,
2013-05-01 07:45:00,54.5,48.8,30.00,NNE,13,0.0,0.0,81,0.00,,,0.00,Wunderground v.1.15,2013-05-01 12:45:00,
2013-05-01 07:50:00,54.6,48.9,30.00,NNE,16,0.0,0.0,81,0.00,,,0.00,Wunderground v.1.15,2013-05-01 12:50:00,
2013-05-01 07:55:00,54.6,48.9,30.00,North,360,0.0,0.0,81,0.00,,,0.00,Wunderground v.1.15,2013-05-01 12:55:00,
2013-05-01 08:00:00,54.9,48.8,30.01,North,360,0.0,0.0,80,0.00,,,0.00,Wunderground v.1.15,2013-05-01 13:00:00,
2013-05-01 08:05:00,55.2,49.1,30.01,North,5,0.0,0.0,80,0.00,,,0.00,Wunderground v.1.15,2013-05-01 13:05:00,
2013-05-01 08:10:00,55.4,49.0,30.01,North,5,0.0,0.0,79,0.00,,,0.00,Wunderground v.1.15,2013-05-01 13:10:00,
2013-05-01 08:15:00,55.6,48.8,30.01,North,9,0.0,0.0,78,0.00,,,0.00,Wunderground v.1.15,2013-05-01 13:15:00,
2013-05-01 08:20:00,55.7,48.6,30.01,North,360,0.0,0.0,77,0.00,,,0.00,Wunderground v.1.15,2013-05-01 13:20:00,
2013-05-01 08:25:00,55.8,48.3,30.01,NNE,22,0.0,0.0,76,0.00,,,0.00,Wunderground v.1.15,2013-05-01 13:25:00,
2013-05-01 08:30:00,56.2,48.4,30.01,NE,36,0.0,0.0,75,0.00,,,0.00,Wunderground v.1.15,2013-05-01 13:30:00,
2013-05-01 08:35:00,56.6,48.0,30.01,North,355,0.0,0.0,73,0.00,,,0.00,Wunderground v.1.15,2013-05-01 13:35:00,
2013-05-01 08:40:00,56.9,48.0,30.01,NNW,342,0.0,0.0,72,0.00,,,0.00,Wunderground v.1.15,2013-05-01 13:40:00,
2013-05-01 08:46:00,57.1,47.8,30.01,ENE,58,0.0,0.0,71,0.00,,,0.00,Wunderground v.1.15,2013-05-01 13:46:00,
2013-05-01 08:51:00,57.1,47.4,30.01,NE,45,0.0,0.0,70,0.00,,,0.00,Wunderground v.1.15,2013-05-01 13:51:00,
2013-05-01 08:56:00,57.6,47.5,30.02,North,355,0.0,0.0,69,0.00,,,0.00,Wunderground v.1.15,2013-05-01 13:56:00,
2013-05-01 09:02:00,58.1,47.6,30.01,NE,45,0.0,0.0,68,0.00,,,0.00,Wunderground v.1.15,2013-05-01 14:02:00,
2013-05-01 09:08:00,58.7,48.2,30.01,NE,50,0.0,0.0,68,0.00,,,0.00,Wunderground v.1.15,2013-05-01 14:08:00,
2013-05-01 09:13:00,59.0,47.7,30.02,NE,42,0.0,0.0,66,0.00,,,0.00,Wunderground v.1.15,2013-05-01 14:13:00,
2013-05-01 09:18:00,59.3,47.9,30.02,ENE,67,0.0,0.0,66,0.00,,,0.00,Wunderground v.1.15,2013-05-01 14:18:00,
2013-05-01 09:23:00,59.4,47.6,30.01,NNE,15,0.0,0.0,65,0.00,,,0.00,Wunderground v.1.15,2013-05-01 14:23:00,
2013-05-01 09:28:00,59.4,47.2,30.01,NNE,25,0.0,0.0,64,0.00,,,0.00,Wunderground v.1.15,2013-05-01 14:28:00,
2013-05-01 09:33:00,59.7,47.9,30.01,NNE,24,0.0,0.0,65,0.00,,,0.00,Wunderground v.1.15,2013-05-01 14:33:00,
2013-05-01 09:38:00,60.2,47.6,30.01,NE,55,0.0,0.0,63,0.00,,,0.00,Wunderground v.1.15,2013-05-01 14:38:00,
2013-05-01 09:43:00,60.3,46.8,30.01,North,9,0.0,0.0,61,0.00,,,0.00,Wunderground v.1.15,2013-05-01 14:43:00,
2013-05-01 09:48:00,60.3,46.8,30.02,North,360,0.0,0.0,61,0.00,,,0.00,Wunderground v.1.15,2013-05-01 14:48:00,
2013-05-01 09:53:00,60.6,47.5,30.02,North,360,0.0,0.0,62,0.00,,,0.00,Wunderground v.1.15,2013-05-01 14:53:00,
2013-05-01 09:58:00,60.8,46.8,30.02,NNE,17,0.0,0.0,60,0.00,,,0.00,Wunderground v.1.15,2013-05-01 14:58:00,
2013-05-01 10:03:00,60.8,46.8,30.01,NE,36,0.0,0.0,60,0.00,,,0.00,Wunderground v.1.15,2013-05-01 15:03:00,
2013-05-01 10:08:00,60.9,46.0,30.02,North,5,0.0,0.0,58,0.00,,,0.00,Wunderground v.1.15,2013-05-01 15:08:00,
2013-05-01 10:13:00,61.6,48.0,30.02,NNE,22,0.0,0.0,61,0.00,,,0.00,Wunderground v.1.15,2013-05-01 15:13:00,
2013-05-01 10:18:00,61.8,46.4,30.02,NNE,22,0.0,0.0,57,0.00,,,0.00,Wunderground v.1.15,2013-05-01 15:18:00,
2013-05-01 10:23:00,61.3,47.3,30.02,NNW,345,0.0,0.0,60,0.00,,,0.00,Wunderground v.1.15,2013-05-01 15:23:00,
2013-05-01 10:28:00,61.6,46.7,30.02,North,5,0.0,0.0,58,0.00,,,0.00,Wunderground v.1.15,2013-05-01 15:28:00,
2013-05-01 10:33:00,62.3,46.4,30.02,NNE,19,0.0,0.0,56,0.00,,,0.00,Wunderground v.1.15,2013-05-01 15:33:00,
2013-05-01 10:38:00,62.1,46.2,30.02,NNE,24,0.0,0.0,56,0.00,,,0.00,Wunderground v.1.15,2013-05-01 15:38:00,
2013-05-01 10:43:00,62.9,47.0,30.02,NNE,12,0.0,0.0,56,0.00,,,0.00,Wunderground v.1.15,2013-05-01 15:43:00,
2013-05-01 10:48:00,63.0,47.1,30.02,NNE,13,0.0,0.0,56,0.00,,,0.00,Wunderground v.1.15,2013-05-01 15:48:00,
2013-05-01 10:53:00,63.1,46.7,30.02,NNE,21,0.0,0.0,55,0.00,,,0.00,Wunderground v.1.15,2013-05-01 15:53:00,
2013-05-01 10:58:00,63.7,48.2,30.02,NE,39,0.0,0.0,57,0.00,,,0.00,Wunderground v.1.15,2013-05-01 15:58:00,
2013-05-01 11:03:00,63.8,46.8,30.02,North,360,0.0,0.0,54,0.00,,,0.00,Wunderground v.1.15,2013-05-01 16:03:00,
2013-05-01 11:08:00,64.1,47.6,30.03,North,11,0.0,0.0,55,0.00,,,0.00,Wunderground v.1.15,2013-05-01 16:08:00,
2013-05-01 11:13:00,64.1,47.1,30.03,North,5,0.0,0.0,54,0.00,,,0.00,Wunderground v.1.15,2013-05-01 16:13:00,
2013-05-01 11:18:00,63.9,46.4,30.03,North,5,0.0,0.0,53,0.00,,,0.00,Wunderground v.1.15,2013-05-01 16:18:00,
2013-05-01 11:23:00,63.8,46.3,30.03,North,5,0.0,0.0,53,0.00,,,0.00,Wunderground v.1.15,2013-05-01 16:23:00,
2013-05-01 11:28:00,63.9,47.4,30.03,North,360,0.0,0.0,55,0.00,,,0.00,Wunderground v.1.15,2013-05-01 16:28:00,
2013-05-01 11:33:00,64.1,47.1,30.03,North,355,0.0,0.0,54,0.00,,,0.00,Wunderground v.1.15,2013-05-01 16:33:00,
2013-05-01 11:38:00,64.5,47.5,30.03,North,5,0.0,0.0,54,0.00,,,0.00,Wunderground v.1.15,2013-05-01 16:38:00,
2013-05-01 11:43:00,64.6,47.6,30.04,NNE,13,0.0,0.0,54,0.00,,,0.00,Wunderground v.1.15,2013-05-01 16:43:00,
2013-05-01 11:48:00,64.8,47.8,30.04,NNE,19,0.0,0.0,54,0.00,,,0.00,Wunderground v.1.15,2013-05-01 16:48:00,
2013-05-01 11:53:00,65.1,47.5,30.04,North,355,0.0,0.0,53,0.00,,,0.00,Wunderground v.1.15,2013-05-01 16:53:00,
2013-05-01 11:58:00,65.1,47.0,30.04,North,5,0.0,0.0,52,0.00,,,0.00,Wunderground v.1.15,2013-05-01 16:58:00,
2013-05-01 12:03:00,64.8,47.3,30.04,North,5,0.0,0.0,53,0.00,,,0.00,Wunderground v.1.15,2013-05-01 17:03:00,
2013-05-01 12:08:00,65.1,47.0,30.05,North,360,0.0,0.0,52,0.00,,,0.00,Wunderground v.1.15,2013-05-01 17:08:00,
2013-05-01 12:13:00,65.3,47.7,30.04,NNE,29,0.0,0.0,53,0.00,,,0.00,Wunderground v.1.15,2013-05-01 17:13:00,
2013-05-01 12:18:00,65.8,49.2,30.05,NNE,22,0.0,0.0,55,0.00,,,0.00,Wunderground v.1.15,2013-05-01 17:18:00,
2013-05-01 12:23:00,65.9,47.3,30.04,North,9,0.0,0.0,51,0.00,,,0.00,Wunderground v.1.15,2013-05-01 17:23:00,
2013-05-01 12:28:00,65.6,46.5,30.04,North,5,0.0,0.0,50,0.00,,,0.00,Wunderground v.1.15,2013-05-01 17:28:00,
2013-05-01 12:33:00,65.6,48.0,30.05,North,5,0.0,0.0,53,0.00,,,0.00,Wunderground v.1.15,2013-05-01 17:33:00,
2013-05-01 12:38:00,66.6,49.9,30.05,NNE,28,0.0,0.0,55,0.00,,,0.00,Wunderground v.1.15,2013-05-01 17:38:00,
2013-05-01 12:43:00,66.7,48.5,30.04,North,10,0.0,0.0,52,0.00,,,0.00,Wunderground v.1.15,2013-05-01 17:43:00,
2013-05-01 12:48:00,66.7,48.0,30.04,North,11,0.0,0.0,51,0.00,,,0.00,Wunderground v.1.15,2013-05-01 17:48:00,
2013-05-01 12:53:00,66.0,49.4,30.04,NNE,15,0.0,0.0,55,0.00,,,0.00,Wunderground v.1.15,2013-05-01 17:53:00,
2013-05-01 12:58:00,66.7,49.0,30.04,NNE,20,0.0,0.0,53,0.00,,,0.00,Wunderground v.1.15,2013-05-01 17:58:00,
2013-05-01 13:03:00,66.7,48.5,30.05,NNE,12,0.0,0.0,52,0.00,,,0.00,Wunderground v.1.15,2013-05-01 18:03:00,
2013-05-01 13:08:00,67.0,47.7,30.05,North,355,0.0,0.0,50,0.00,,,0.00,Wunderground v.1.15,2013-05-01 18:08:00,
2013-05-01 13:13:00,66.8,48.6,30.05,North,5,0.0,0.0,52,0.00,,,0.00,Wunderground v.1.15,2013-05-01 18:13:00,
2013-05-01 13:19:00,67.2,49.5,30.05,NNW,348,0.0,0.0,53,0.00,,,0.00,Wunderground v.1.15,2013-05-01 18:19:00,
2013-05-01 13:24:00,67.4,50.7,30.05,NNE,13,0.0,0.0,55,0.00,,,0.00,Wunderground v.1.15,2013-05-01 18:24:00,
2013-05-01 13:28:00,67.8,48.5,30.04,North,5,0.0,0.0,50,0.00,,,0.00,Wunderground v.1.15,2013-05-01 18:28:00,
2013-05-01 13:33:00,67.3,49.6,30.05,North,360,0.0,0.0,53,0.00,,,0.00,Wunderground v.1.15,2013-05-01 18:33:00,
2013-05-01 13:38:00,67.6,48.8,30.05,North,5,0.0,0.0,51,0.00,,,0.00,Wunderground v.1.15,2013-05-01 18:38:00,
2013-05-01 13:43:00,67.3,48.0,30.04,NNE,19,0.0,0.0,50,0.00,,,0.00,Wunderground v.1.15,2013-05-01 18:43:00,
2013-05-01 13:49:00,67.3,48.5,30.05,NNE,20,0.0,0.0,51,0.00,,,0.00,Wunderground v.1.15,2013-05-01 18:49:00,
2013-05-01 13:54:00,67.6,50.9,30.05,NNE,17,0.0,0.0,55,0.00,,,0.00,Wunderground v.1.15,2013-05-01 18:54:00,
2013-05-01 13:59:00,67.7,48.9,30.05,North,355,0.0,0.0,51,0.00,,,0.00,Wunderground v.1.15,2013-05-01 18:59:00,
2013-05-01 14:04:00,67.9,49.6,30.05,NNE,13,0.0,0.0,52,0.00,,,0.00,Wunderground v.1.15,2013-05-01 19:04:00,
2013-05-01 14:09:00,68.4,49.6,30.05,NNE,18,0.0,0.0,51,0.00,,,0.00,Wunderground v.1.15,2013-05-01 19:09:00,
2013-05-01 14:14:00,68.7,49.8,30.05,North,360,0.0,0.0,51,0.00,,,0.00,Wunderground v.1.15,2013-05-01 19:14:00,
2013-05-01 14:19:00,68.7,49.8,30.05,North,360,0.0,0.0,51,0.00,,,0.00,Wunderground v.1.15,2013-05-01 19:19:00,
2013-05-01 14:24:00,68.4,49.0,30.05,North,360,0.0,0.0,50,0.00,,,0.00,Wunderground v.1.15,2013-05-01 19:24:00,
2013-05-01 14:29:00,69.0,49.6,30.05,North,11,0.0,0.0,50,0.00,,,0.00,Wunderground v.1.15,2013-05-01 19:29:00,
2013-05-01 14:34:00,69.2,48.7,30.05,North,11,0.0,0.0,48,0.00,,,0.00,Wunderground v.1.15,2013-05-01 19:34:00,
2013-05-01 14:39:00,68.9,49.5,30.05,North,360,0.0,0.0,50,0.00,,,0.00,Wunderground v.1.15,2013-05-01 19:39:00,
2013-05-01 14:44:00,68.8,48.9,30.04,NNE,19,0.0,0.0,49,0.00,,,0.00,Wunderground v.1.15,2013-05-01 19:44:00,
2013-05-01 14:49:00,69.3,50.9,30.05,ENE,72,0.0,0.0,52,0.00,,,0.00,Wunderground v.1.15,2013-05-01 19:49:00,
2013-05-01 14:54:00,68.9,48.9,30.05,North,360,0.0,0.0,49,0.00,,,0.00,Wunderground v.1.15,2013-05-01 19:54:00,
2013-05-01 14:59:00,68.8,48.9,30.05,NNW,344,0.0,0.0,49,0.00,,,0.00,Wunderground v.1.15,2013-05-01 19:59:00,
2013-05-01 15:04:00,69.0,50.6,30.05,North,355,0.0,0.0,52,0.00,,,0.00,Wunderground v.1.15,2013-05-01 20:04:00,
2013-05-01 15:09:00,69.3,49.9,30.05,North,11,0.0,0.0,50,0.00,,,0.00,Wunderground v.1.15,2013-05-01 20:09:00,
2013-05-01 15:14:00,69.9,50.9,30.06,NNW,344,0.0,0.0,51,0.00,,,0.00,Wunderground v.1.15,2013-05-01 20:14:00,
2013-05-01 15:19:00,69.8,49.8,30.05,North,5,0.0,0.0,49,0.00,,,0.00,Wunderground v.1.15,2013-05-01 20:19:00,
2013-05-01 15:24:00,69.1,49.1,30.05,NNE,13,0.0,0.0,49,0.00,,,0.00,Wunderground v.1.15,2013-05-01 20:24:00,
2013-05-01 15:29:00,69.3,50.4,30.05,North,5,0.0,0.0,51,0.00,,,0.00,Wunderground v.1.15,2013-05-01 20:29:00,
2013-05-01 15:34:00,69.2,49.8,30.05,North,5,0.0,0.0,50,0.00,,,0.00,Wunderground v.1.15,2013-05-01 20:34:00,
2013-05-01 15:39:00,68.7,49.3,30.05,North,350,0.0,0.0,50,0.00,,,0.00,Wunderground v.1.15,2013-05-01 20:39:00,
2013-05-01 15:44:00,68.6,49.2,30.05,North,10,0.0,0.0,50,0.00,,,0.00,Wunderground v.1.15,2013-05-01 20:44:00,
2013-05-01 15:49:00,68.5,50.2,30.05,North,9,0.0,0.0,52,0.00,,,0.00,Wunderground v.1.15,2013-05-01 20:49:00,
2013-05-01 15:54:00,68.1,49.3,30.05,North,5,0.0,0.0,51,0.00,,,0.00,Wunderground v.1.15,2013-05-01 20:54:00,
2013-05-01 15:59:00,67.9,49.6,30.05,North,355,0.0,0.0,52,0.00,,,0.00,Wunderground v.1.15,2013-05-01 20:59:00,
2013-05-01 16:04:00,67.4,49.2,30.05,NNW,342,0.0,0.0,52,0.00,,,0.00,Wunderground v.1.15,2013-05-01 21:04:00,
2013-05-01 16:09:00,66.5,48.8,30.05,North,355,0.0,0.0,53,0.00,,,0.00,Wunderground v.1.15,2013-05-01 21:09:00,
2013-05-01 16:14:00,66.0,48.9,30.05,North,355,0.0,0.0,54,0.00,,,0.00,Wunderground v.1.15,2013-05-01 21:14:00,
2013-05-01 16:19:00,65.6,49.0,30.06,NNW,345,0.0,0.0,55,0.00,,,0.00,Wunderground v.1.15,2013-05-01 21:19:00,
2013-05-01 16:24:00,65.3,48.2,30.06,North,355,0.0,0.0,54,0.00,,,0.00,Wunderground v.1.15,2013-05-01 21:24:00,
2013-05-01 16:30:00,65.0,48.4,30.06,North,355,0.0,0.0,55,0.00,,,0.00,Wunderground v.1.15,2013-05-01 21:30:00,
2013-05-01 16:35:00,64.2,48.2,30.06,North,350,0.0,0.0,56,0.00,,,0.00,Wunderground v.1.15,2013-05-01 21:35:00,
2013-05-01 16:40:00,63.9,47.9,30.06,North,355,0.0,0.0,56,0.00,,,0.00,Wunderground v.1.15,2013-05-01 21:40:00,
2013-05-01 16:45:00,63.5,48.0,30.06,North,9,0.0,0.0,57,0.00,,,0.00,Wunderground v.1.15,2013-05-01 21:45:00,
2013-05-01 16:50:00,63.7,47.7,30.06,North,355,0.0,0.0,56,0.00,,,0.00,Wunderground v.1.15,2013-05-01 21:50:00,
2013-05-01 16:55:00,63.6,47.6,30.06,North,5,0.0,0.0,56,0.00,,,0.00,Wunderground v.1.15,2013-05-01 21:55:00,
2013-05-01 17:00:00,62.9,47.4,30.06,North,349,0.0,0.0,57,0.00,,,0.00,Wunderground v.1.15,2013-05-01 22:00:00,
2013-05-01 17:05:00,62.3,47.3,30.06,North,355,0.0,0.0,58,0.00,,,0.00,Wunderground v.1.15,2013-05-01 22:05:00,
2013-05-01 17:10:00,61.6,46.7,30.07,North,360,0.0,0.0,58,0.00,,,0.00,Wunderground v.1.15,2013-05-01 22:10:00,
2013-05-01 17:15:00,61.7,46.8,30.07,North,351,0.0,0.0,58,0.00,,,0.00,Wunderground v.1.15,2013-05-01 22:15:00,
2013-05-01 17:20:00,61.4,46.5,30.07,NNW,347,0.0,0.0,58,0.00,,,0.00,Wunderground v.1.15,2013-05-01 22:20:00,
2013-05-01 17:25:00,61.3,46.4,30.07,North,355,0.0,0.0,58,0.00,,,0.00,Wunderground v.1.15,2013-05-01 22:25:00,
2013-05-01 17:30:00,60.4,46.0,30.08,North,355,0.0,0.0,59,0.00,,,0.00,Wunderground v.1.15,2013-05-01 22:30:00,
2013-05-01 17:35:00,59.4,45.5,30.08,NNW,338,0.0,0.0,60,0.00,,,0.00,Wunderground v.1.15,2013-05-01 22:35:00,
2013-05-01 17:40:00,58.9,45.9,30.08,North,355,0.0,0.0,62,0.00,,,0.00,Wunderground v.1.15,2013-05-01 22:40:00,
2013-05-01 17:45:00,58.7,45.3,30.09,NNW,347,0.0,0.0,61,0.00,,,0.00,Wunderground v.1.15,2013-05-01 22:45:00,
2013-05-01 17:50:00,58.1,45.1,30.09,NNW,342,0.0,0.0,62,0.00,,,0.00,Wunderground v.1.15,2013-05-01 22:50:00,
2013-05-01 17:55:00,57.3,44.8,30.10,NNW,340,0.0,0.0,63,0.00,,,0.00,Wunderground v.1.15,2013-05-01 22:55:00,
2013-05-01 18:00:00,57.0,44.9,30.10,North,355,0.0,0.0,64,0.00,,,0.00,Wunderground v.1.15,2013-05-01 23:00:00,
2013-05-01 18:05:00,56.2,44.2,30.10,NNW,345,0.0,0.0,64,0.00,,,0.00,Wunderground v.1.15,2013-05-01 23:05:00,
2013-05-01 18:10:00,55.4,43.8,30.10,North,5,0.0,0.0,65,0.00,,,0.00,Wunderground v.1.15,2013-05-01 23:10:00,
2013-05-01 18:15:00,54.4,43.3,30.10,North,5,0.0,0.0,66,0.00,,,0.00,Wunderground v.1.15,2013-05-01 23:15:00,
2013-05-01 18:20:00,54.0,43.3,30.10,North,351,0.0,0.0,67,0.00,,,0.00,Wunderground v.1.15,2013-05-01 23:20:00,
2013-05-01 18:25:00,53.0,42.7,30.10,North,349,0.0,0.0,68,0.00,,,0.00,Wunderground v.1.15,2013-05-01 23:25:00,
2013-05-01 18:30:00,51.9,42.4,30.11,NNW,346,0.0,0.0,70,0.00,,,0.00,Wunderground v.1.15,2013-05-01 23:30:00,
2013-05-01 18:35:00,50.7,42.0,30.11,North,355,0.0,0.0,72,0.00,,,0.00,Wunderground v.1.15,2013-05-01 23:35:00,
2013-05-01 18:40:00,49.9,41.6,30.12,North,351,0.0,0.0,73,0.00,,,0.00,Wunderground v.1.15,2013-05-01 23:40:00,
2013-05-01 18:45:00,49.2,41.3,30.12,North,351,0.0,0.0,74,0.00,,,0.00,Wunderground v.1.15,2013-05-01 23:45:00,
2013-05-01 18:50:00,48.4,41.2,30.12,North,5,0.0,0.0,76,0.00,,,0.00,Wunderground v.1.15,2013-05-01 23:50:00,
2013-05-01 18:55:00,48.3,41.1,30.12,North,5,0.0,0.0,76,0.00,,,0.00,Wunderground v.1.15,2013-05-01 23:55:00,
2013-05-01 19:00:00,48.3,41.1,30.12,North,355,0.0,0.0,76,0.00,,,0.00,Wunderground v.1.15,2013-05-02 00:00:00,
2013-05-01 19:05:00,48.5,41.3,30.12,North,5,0.0,0.0,76,0.00,,,0.00,Wunderground v.1.15,2013-05-02 00:05:00,
2013-05-01 19:10:00,48.2,41.0,30.12,North,355,0.0,0.0,76,0.00,,,0.00,Wunderground v.1.15,2013-05-02 00:10:00,
2013-05-01 19:15:00,48.1,40.9,30.12,North,355,0.0,0.0,76,0.00,,,0.00,Wunderground v.1.15,2013-05-02 00:15:00,
2013-05-01 19:20:00,48.0,40.8,30.12,North,11,0.0,0.0,76,0.00,,,0.00,Wunderground v.1.15,2013-05-02 00:20:00,
2013-05-01 19:25:00,47.8,40.6,30.11,North,355,0.0,0.0,76,0.00,,,0.00,Wunderground v.1.15,2013-05-02 00:25:00,
2013-05-01 19:30:00,47.7,40.5,30.12,North,355,0.0,0.0,76,0.00,,,0.00,Wunderground v.1.15,2013-05-02 00:30:00,
2013-05-01 19:35:00,47.6,40.4,30.12,North,360,0.0,0.0,76,0.00,,,0.00,Wunderground v.1.15,2013-05-02 00:35:00,
2013-05-01 19:40:00,47.2,40.0,30.12,North,355,0.0,0.0,76,0.00,,,0.00,Wunderground v.1.15,2013-05-02 00:40:00,
2013-05-01 19:45:00,46.9,39.7,30.13,North,355,0.0,0.0,76,0.00,,,0.00,Wunderground v.1.15,2013-05-02 00:45:00,
2013-05-01 19:50:00,46.5,39.3,30.13,North,5,0.0,0.0,76,0.00,,,0.00,Wunderground v.1.15,2013-05-02 00:50:00,
2013-05-01 19:55:00,45.9,39.1,30.13,North,355,0.0,0.0,77,0.00,,,0.00,Wunderground v.1.15,2013-05-02 00:55:00,
2013-05-01 20:00:00,45.8,39.0,30.12,North,5,0.0,0.0,77,0.00,,,0.00,Wunderground v.1.15,2013-05-02 01:00:00,
2013-05-01 20:08:00,45.6,38.8,30.12,North,355,0.0,0.0,77,0.00,,,0.00,Wunderground v.1.15,2013-05-02 01:08:00,
2013-05-01 20:20:00,45.4,38.6,30.15,North,5,0.0,0.0,77,0.00,,,0.00,Wunderground v.1.15,2013-05-02 01:20:00,
2013-05-01 20:25:00,45.2,38.4,30.14,NNE,15,0.0,0.0,77,0.00,,,0.00,Wunderground v.1.15,2013-05-02 01:25:00,
2013-05-01 20:30:00,45.1,38.3,30.14,North,5,0.0,0.0,77,0.00,,,0.00,Wunderground v.1.15,2013-05-02 01:30:00,
2013-05-01 20:35:00,45.1,38.3,30.14,North,360,0.0,0.0,77,0.00,,,0.00,Wunderground v.1.15,2013-05-02 01:35:00,
2013-05-01 20:40:00,44.8,38.0,30.15,North,11,0.0,0.0,77,0.00,,,0.00,Wunderground v.1.15,2013-05-02 01:40:00,
2013-05-01 20:45:00,44.9,37.8,30.16,North,5,0.0,0.0,76,0.00,,,0.00,Wunderground v.1.15,2013-05-02 01:45:00,
2013-05-01 20:50:00,44.9,37.8,30.15,NNE,21,0.0,0.0,76,0.00,,,0.00,Wunderground v.1.15,2013-05-02 01:50:00,
2013-05-01 20:55:00,44.9,37.8,30.16,North,360,0.0,0.0,76,0.00,,,0.00,Wunderground v.1.15,2013-05-02 01:55:00,
2013-05-01 21:00:00,44.9,37.8,30.16,NNW,346,0.0,0.0,76,0.00,,,0.00,Wunderground v.1.15,2013-05-02 02:00:00,
2013-05-01 21:05:00,44.8,37.7,30.16,NE,35,0.0,0.0,76,0.00,,,0.00,Wunderground v.1.15,2013-05-02 02:05:00,
2013-05-01 21:10:00,44.7,37.6,30.17,NNE,13,0.0,0.0,76,0.00,,,0.00,Wunderground v.1.15,2013-05-02 02:10:00,
2013-05-01 21:22:00,44.2,37.4,30.17,North,11,0.0,0.0,77,0.00,,,0.00,Wunderground v.1.15,2013-05-02 02:22:00,
2013-05-01 21:27:00,44.1,37.3,30.17,North,360,0.0,0.0,77,0.00,,,0.00,Wunderground v.1.15,2013-05-02 02:27:00,
2013-05-01 21:42:00,43.7,37.3,30.18,North,5,0.0,0.0,78,0.00,,,0.00,Wunderground v.1.15,2013-05-02 02:42:00,
2013-05-01 21:47:00,43.6,37.2,30.18,North,360,0.0,0.0,78,0.00,,,0.00,Wunderground v.1.15,2013-05-02 02:47:00,
2013-05-01 21:52:00,43.5,37.1,30.18,North,5,0.0,0.0,78,0.00,,,0.00,Wunderground v.1.15,2013-05-02 02:52:00,
2013-05-01 21:57:00,43.5,37.4,30.18,NNE,16,0.0,0.0,79,0.00,,,0.00,Wunderground v.1.15,2013-05-02 02:57:00,
2013-05-01 22:02:00,43.5,37.4,30.18,North,9,0.0,0.0,79,0.00,,,0.00,Wunderground v.1.15,2013-05-02 03:02:00,
2013-05-01 22:08:00,43.6,37.5,30.19,North,5,0.0,0.0,79,0.00,,,0.00,Wunderground v.1.15,2013-05-02 03:08:00,
2013-05-01 22:13:00,43.7,37.6,30.18,NE,40,0.0,0.0,79,0.00,,,0.00,Wunderground v.1.15,2013-05-02 03:13:00,
2013-05-01 22:18:00,43.7,37.3,30.18,NNE,16,0.0,0.0,78,0.00,,,0.00,Wunderground v.1.15,2013-05-02 03:18:00,
2013-05-01 22:23:00,43.7,37.3,30.18,North,5,0.0,0.0,78,0.00,,,0.00,Wunderground v.1.15,2013-05-02 03:23:00,
2013-05-01 22:28:00,43.8,37.4,30.17,NNE,21,0.0,0.0,78,0.00,,,0.00,Wunderground v.1.15,2013-05-02 03:28:00,
2013-05-01 22:33:00,43.7,37.3,30.18,NNE,13,0.0,0.0,78,0.00,,,0.00,Wunderground v.1.15,2013-05-02 03:33:00,
2013-05-01 22:38:00,43.7,37.6,30.17,North,355,0.0,0.0,79,0.00,,,0.00,Wunderground v.1.15,2013-05-02 03:38:00,
2013-05-01 22:43:00,43.6,37.5,30.17,NNE,17,0.0,0.0,79,0.00,,,0.00,Wunderground v.1.15,2013-05-02 03:43:00,
2013-05-01 22:48:00,43.5,37.4,30.18,North,5,0.0,0.0,79,0.00,,,0.00,Wunderground v.1.15,2013-05-02 03:48:00,
2013-05-01 22:53:00,43.5,37.4,30.19,NNE,28,0.0,0.0,79,0.00,,,0.00,Wunderground v.1.15,2013-05-02 03:53:00,
2013-05-01 22:58:00,43.6,37.5,30.19,NNE,21,0.0,0.0,79,0.00,,,0.00,Wunderground v.1.15,2013-05-02 03:58:00,
2013-05-01 23:01:00,43.6,37.5,30.19,NNE,15,0.0,0.0,79,0.00,,,0.00,Wunderground v.1.15,2013-05-02 04:01:00,
2013-05-01 23:02:00,43.6,37.5,30.19,North,360,0.0,0.0,79,0.00,,,0.00,Wunderground v.1.15,2013-05-02 04:02:00,
2013-05-01 23:03:00,43.6,37.5,30.19,North,360,0.0,0.0,79,0.00,,,0.00,Wunderground v.1.15,2013-05-02 04:03:00,
2013-05-01 23:08:00,43.6,37.5,30.19,North,5,0.0,0.0,79,0.00,,,0.00,Wunderground v.1.15,2013-05-02 04:08:00,
2013-05-01 23:13:00,43.4,37.6,30.18,North,360,0.0,0.0,80,0.00,,,0.00,Wunderground v.1.15,2013-05-02 04:13:00,
2013-05-01 23:18:00,43.1,37.3,30.18,North,355,0.0,0.0,80,0.00,,,0.00,Wunderground v.1.15,2013-05-02 04:18:00,
2013-05-01 23:23:00,42.9,37.5,30.20,North,349,0.0,0.0,81,0.00,,,0.00,Wunderground v.1.15,2013-05-02 04:23:00,
2013-05-01 23:28:00,42.9,37.5,30.20,North,355,0.0,0.0,81,0.00,,,0.00,Wunderground v.1.15,2013-05-02 04:28:00,
2013-05-01 23:33:00,42.8,37.4,30.20,North,360,0.0,0.0,81,0.00,,,0.00,Wunderground v.1.15,2013-05-02 04:33:00,
2013-05-01 23:38:00,42.6,37.2,30.20,North,355,0.0,0.0,81,0.00,,,0.00,Wunderground v.1.15,2013-05-02 04:38:00,
2013-05-01 23:43:00,42.5,37.1,30.19,North,360,0.0,0.0,81,0.00,,,0.00,Wunderground v.1.15,2013-05-02 04:43:00,
2013-05-01 23:48:00,42.5,37.4,30.19,North,11,0.0,0.0,82,0.00,,,0.00,Wunderground v.1.15,2013-05-02 04:48:00,
2013-05-01 23:53:00,42.5,37.1,30.20,North,5,0.0,0.0,81,0.00,,,0.00,Wunderground v.1.15,2013-05-02 04:53:00,